Wind_Speed
41 42 44 47 48 50 52 54 55 56 57 58 58 59 59 60 61 61 62 62 61 61 60 59 59 58 57 56 54 53 50 47 44 42 40 41 41 42 43 44 46 47
41 43 46 48 49 51 53 55 56 56 57 57 58 59 59 60 60 60 60 60 59 58 57 56 56 55 54 53 51 48 44 40 38 38 39 40 40 42 43 44 45 46
42 44 46 48 50 52 54 55 55 56 56 57 58 58 59 59 59 59 58 57 57 56 55 54 54 53 51 49 46 41 38 36 36 37 38 39 40 41 42 43 45 46
43 45 47 50 52 53 54 54 55 56 56 57 58 58 58 58 58 57 56 56 55 54 53 52 52 50 48 44 40 36 35 35 35 36 36 37 39 41 42 43 45 46
45 47 49 51 52 53 53 54 55 56 56 57 57 57 57 57 56 55 54 54 53 52 51 50 49 46 42 38 35 34 34 34 34 35 36 37 39 41 42 43 44 46
47 49 51 52 52 52 53 54 55 56 56 56 56 56 56 55 54 53 52 51 51 50 49 47 44 40 36 34 33 34 34 34 34 35 36 37 39 41 42 43 44 45
48 50 50 51 51 52 53 54 55 55 55 55 55 54 53 53 51 50 49 49 48 47 45 42 38 35 33 33 33 33 33 34 34 35 35 36 38 40 41 43 44 45
48 49 50 50 51 52 53 54 54 54 53 53 52 52 51 50 49 48 48 47 47 45 41 37 34 33 33 34 33 33 34 34 35 35 36 36 37 39 41 42 43 44
48 48 49 50 51 52 52 52 52 51 51 50 50 50 49 49 48 47 47 46 44 41 37 34 33 33 34 34 33 34 35 35 35 36 36 37 37 39 41 42 43 44
47 48 49 50 51 51 51 50 49 49 49 49 49 49 48 48 47 47 46 44 41 36 33 32 33 34 35 35 34 35 36 36 36 36 37 37 38 39 41 42 43 44
47 48 49 50 50 50 49 48 47 47 48 48 48 48 47 47 47 46 44 40 36 33 32 33 33 34 35 35 35 36 37 36 37 37 37 37 38 39 41 42 43 43
47 48 49 49 49 48 47 46 46 46 47 48 47 47 46 46 45 43 39 36 33 32 32 33 34 34 36 36 36 37 37 37 37 37 37 37 38 40 41 42 43 43
47 48 48 48 47 47 46 45 45 46 46 46 46 46 45 44 42 38 34 32 31 32 33 33 34 35 37 38 37 38 38 37 37 38 38 38 38 39 40 41 42 43
46 47 47 47 46 45 45 45 45 45 45 45 45 45 44 41 37 33 31 31 32 33 33 33 34 36 38 39 38 39 39 38 38 39 39 39 38 38 38 40 41 42
45 46 46 45 45 44 44 44 44 44 43 43 44 43 41 37 33 30 30 31 32 33 33 33 34 37 39 40 40 40 40 39 38 39 39 39 39 39 39 40 42 43
44 45 44 44 44 44 44 44 43 43 42 43 42 41 37 33 30 30 30 32 33 33 32 33 35 38 40 41 41 42 41 41 39 38 39 40 40 40 41 41 42 44
43 43 43 43 43 44 44 43 42 42 42 41 40 37 33 30 29 30 31 32 33 33 32 33 35 38 41 41 41 42 43 43 42 41 41 41 42 43 43 43 44 44
42 42 42 43 43 44 43 42 42 41 41 39 37 33 30 29 29 30 31 32 33 33 33 33 35 38 41 42 42 42 43 44 43 43 42 42 43 43 44 45 45 45
42 42 42 43 44 43 43 42 41 40 39 36 33 30 28 29 30 31 31 32 33 33 33 33 35 39 42 43 43 43 43 44 43 43 43 42 42 43 43 44 45 46
41 41 42 43 43 43 42 42 40 38 36 33 30 28 28 29 30 30 31 32 34 34 34 34 35 39 42 43 44 44 45 45 44 43 43 42 42 42 43 44 44 45
41 41 42 43 43 42 42 41 38 35 32 30 28 28 29 30 30 30 30 31 34 35 35 34 35 38 41 43 44 45 47 47 46 45 44 43 43 43 43 44 44 45
41 42 42 42 42 42 40 38 34 31 30 29 29 29 30 30 30 30 31 32 33 36 36 35 35 38 41 43 44 46 48 49 49 48 47 46 45 45 46 46 45 46
41 42 42 42 42 40 37 33 30 29 29 29 30 29 30 30 30 30 32 33 34 36 37 36 34 37 41 43 44 46 49 51 51 51 50 50 49 49 50 49 48 48
41 42 42 41 40 37 33 29 28 28 29 30 30 30 29 30 31 31 32 34 35 36 37 37 36 36 40 43 44 46 50 52 53 53 54 53 53 53 53 52 52 51
41 41 41 41 38 33 29 27 28 28 29 30 30 30 30 30 32 33 33 34 36 36 36 38 38 37 39 43 44 46 50 53 55 56 57 57 57 58 57 56 55 55
40 40 40 38 33 29 27 27 28 29 29 30 30 30 31 32 34 35 34 34 35 36 36 38 40 40 40 43 46 48 51 55 57 58 59 61 61 61 60 60 59 58
Wind_Direction
293 296 299 301 303 305 307 308 309 310 311 312 313 314 315 316 316 316 316 316 316 315 315 315 315 315 316 316 317 317 317 317 317 318 318 320 322 322 323 325 327 328
296 299 302 303 304 306 307 309 310 311 312 313 314 315 315 315 315 316 315 315 315 315 315 315 315 316 316 316 317 317 317 317 317 319 320 321 322 322 324 326 328 330
300 302 303 303 304 306 308 309 310 311 312 313 314 314 315 315 315 315 315 315 315 315 315 315 315 316 316 316 316 316 316 317 318 319 320 322 323 323 325 328 330 332
301 301 302 303 305 307 309 310 311 312 313 313 314 314 315 315 315 315 315 315 315 315 315 316 315 315 315 315 315 315 316 317 318 320 322 323 324 325 327 330 332 333
300 301 303 305 307 308 310 311 311 312 313 313 314 314 315 315 315 315 315 315 315 315 315 315 314 314 313 313 314 315 316 317 320 322 324 325 326 327 329 331 332 334
300 302 305 307 308 309 310 311 312 312 313 314 314 315 314 314 314 314 314 314 314 314 314 314 313 312 312 312 313 315 318 319 322 325 326 327 328 328 330 331 333 334
302 304 306 307 308 309 310 311 312 312 313 313 313 313 313 313 313 314 314 314 314 314 313 312 311 311 311 312 314 317 319 321 323 326 328 328 329 329 330 331 333 333
303 305 306 308 309 310 310 310 311 311 312 312 312 312 313 313 314 314 314 314 314 313 312 310 310 311 312 313 315 317 319 322 324 327 328 330 330 330 330 331 332 332
305 306 307 308 308 309 309 309 310 311 312 313 313 313 313 314 314 314 314 313 313 312 310 309 310 312 312 313 316 318 320 323 325 327 329 330 331 330 330 330 331 332
305 306 306 307 308 308 309 310 312 313 313 313 313 313 314 314 314 314 313 312 311 310 309 310 311 312 312 313 317 318 320 323 325 327 329 330 331 330 329 329 330 331
304 305 306 307 308 309 310 312 313 314 314 313 312 313 313 314 313 313 312 311 309 308 309 311 312 312 312 314 317 318 320 323 325 327 328 330 330 329 328 328 329 330
305 306 307 308 309 310 311 313 314 314 312 312 312 312 312 313 312 311 310 308 307 308 310 312 312 312 312 314 317 318 320 323 325 326 328 329 329 329 328 327 327 328
306 307 307 308 309 310 312 313 313 312 311 311 311 312 312 312 311 309 307 306 307 309 311 312 312 312 312 314 316 318 320 323 325 326 327 328 329 329 327 325 324 325
307 307 307 308 309 311 312 313 312 311 310 311 311 311 311 311 309 307 306 306 308 310 312 313 313 312 312 314 316 318 320 323 325 326 327 327 327 327 325 323 322 323
306 306 307 308 309 310 312 311 311 310 311 311 311 310 310 309 307 306 305 307 308 310 312 313 313 312 312 314 317 318 320 322 324 325 325 324 325 325 324 323 322 323
305 306 307 308 309 311 311 311 310 311 311 310 309 309 309 307 306 306 306 307 308 310 312 313 313 312 312 315 317 318 320 321 322 323 323 323 324 325 325 324 323 324
305 306 308 309 310 311 311 310 310 310 310 309 308 308 307 306 305 306 307 307 308 309 311 313 314 312 312 315 316 318 320 320 322 323 324 324 325 325 325 324 323 324
306 308 309 310 310 310 310 309 310 310 309 308 307 306 305 305 305 306 306 307 307 309 311 314 314 313 312 314 316 317 318 319 321 323 323 324 325 325 324 323 322 323
307 309 310 310 309 308 308 309 309 309 308 306 305 304 304 304 304 305 307 307 307 309 312 314 314 313 312 313 315 316 317 317 319 321 322 323 324 324 323 322 321 321
308 309 309 308 307 306 307 308 309 308 306 304 303 303 303 304 305 306 307 307 307 309 312 314 315 313 312 313 314 315 315 316 318 320 321 322 322 322 320 320 320 319
308 308 307 306 305 306 308 309 309 306 303 302 302 302 303 304 305 306 307 307 308 309 311 315 316 313 311 312 314 315 315 315 317 318 319 320 321 320 319 319 319 318
306 306 305 304 305 307 309 309 306 303 301 301 301 303 304 305 306 307 307 307 308 309 311 315 316 313 312 313 314 314 314 315 316 318 318 319 320 319 319 319 319 318
305 304 303 303 306 308 309 307 303 300 300 301 302 304 305 306 307 307 308 308 309 311 312 314 315 314 312 313 314 314 314 314 316 317 318 319 319 319 318 318 318 317
303 302 302 304 307 308 306 303 300 299 300 301 303 306 307 307 307 308 309 309 311 312 313 314 315 315 313 314 314 314 313 314 315 316 317 318 318 317 318 318 317 317
301 301 303 306 307 306 303 301 300 300 302 303 305 307 308 308 307 307 309 311 312 314 315 315 315 316 315 314 314 314 314 314 314 316 317 317 317 317 318 318 318 317
300 302 304 305 305 302 301 301 301 302 304 305 307 308 308 308 307 307 309 313 315 316 317 316 315 316 316 315 314 314 314 313 315 317 317 317 317 317 318 318 318 317
Height
3101 3099 3096 3094 3091 3089 3086 3083 3080 3077 3073 3070 3067 3064 3061 3058 3054 3051 3047 3044 3040 3037 3034 3031 3027 3024 3020 3017 3014 3010 3007 3004 3001 2998 2995 2991 2988 2985 2981 2978 2974 2970
3096 3094 3091 3089 3086 3084 3081 3078 3075 3071 3068 3065 3062 3059 3056 3052 3049 3046 3043 3039 3036 3032 3029 3026 3022 3019 3016 3012 3009 3006 3003 3000 2997 2994 2991 2988 2984 2981 2977 2974 2970 2966
3091 3089 3087 3084 3082 3079 3076 3073 3069 3066 3063 3060 3057 3054 3051 3048 3044 3041 3037 3034 3031 3027 3024 3021 3017 3014 3011 3008 3005 3002 2999 2996 2993 2991 2987 2983 2980 2976 2973 2969 2965 2961
3086 3084 3082 3080 3077 3074 3071 3068 3064 3061 3058 3055 3052 3049 3045 3042 3039 3035 3032 3028 3025 3022 3018 3015 3012 3009 3006 3004 3001 2998 2996 2992 2989 2987 2983 2979 2975 2971 2967 2964 2960 2956
3082 3079 3077 3074 3071 3068 3065 3062 3059 3056 3053 3049 3046 3043 3040 3036 3033 3029 3026 3023 3020 3017 3014 3011 3007 3005 3002 3000 2997 2994 2992 2989 2985 2982 2979 2975 2970 2966 2962 2959 2955 2951
3077 3074 3071 3068 3066 3063 3060 3057 3054 3050 3047 3044 3041 3037 3034 3031 3028 3025 3022 3019 3016 3012 3009 3006 3003 3000 2998 2996 2993 2990 2987 2984 2981 2977 2973 2970 2966 2961 2958 2954 2950 2947
3072 3069 3066 3063 3061 3058 3055 3052 3048 3045 3042 3039 3036 3033 3030 3027 3023 3020 3017 3014 3011 3008 3004 3002 2999 2996 2994 2992 2989 2986 2983 2980 2976 2973 2969 2965 2961 2957 2953 2950 2946 2943
3067 3064 3061 3058 3055 3053 3050 3047 3044 3041 3038 3035 3031 3028 3024 3021 3018 3015 3012 3009 3006 3003 3000 2997 2995 2992 2989 2987 2985 2981 2978 2975 2972 2968 2965 2961 2957 2953 2949 2945 2942 2939
3062 3059 3056 3054 3051 3048 3045 3042 3039 3036 3033 3029 3026 3022 3019 3016 3013 3010 3007 3004 3001 2998 2995 2993 2990 2988 2985 2982 2980 2977 2974 2971 2967 2964 2960 2957 2953 2948 2945 2941 2938 2934
3057 3054 3052 3049 3046 3043 3040 3037 3034 3031 3027 3023 3020 3017 3014 3011 3008 3005 3002 2999 2997 2994 2991 2989 2986 2983 2980 2977 2975 2972 2969 2966 2963 2960 2956 2952 2948 2944 2941 2937 2933 2930
3052 3050 3047 3044 3041 3038 3034 3032 3029 3025 3022 3018 3015 3012 3009 3007 3004 3001 2998 2995 2992 2990 2987 2984 2981 2978 2975 2973 2971 2967 2964 2962 2958 2955 2952 2948 2945 2941 2937 2933 2929 2925
3047 3044 3041 3038 3035 3032 3029 3026 3023 3021 3017 3014 3011 3008 3005 3003 3000 2996 2993 2991 2988 2985 2983 2980 2977 2974 2971 2969 2966 2964 2960 2958 2954 2951 2948 2944 2941 2937 2932 2929 2925 2922
3042 3039 3035 3032 3030 3027 3024 3022 3019 3016 3013 3010 3007 3004 3001 2998 2995 2992 2989 2986 2984 2981 2979 2976 2973 2970 2967 2964 2962 2959 2956 2953 2950 2947 2944 2940 2937 2934 2930 2926 2923 2920
3036 3033 3030 3027 3024 3022 3020 3017 3015 3011 3008 3005 3002 2999 2997 2994 2991 2988 2985 2983 2980 2978 2975 2973 2970 2966 2963 2960 2958 2955 2951 2948 2945 2942 2939 2936 2933 2931 2928 2924 2920 2917
3031 3028 3025 3023 3020 3018 3016 3013 3010 3007 3004 3001 2998 2995 2992 2989 2987 2984 2982 2979 2976 2974 2972 2969 2966 2962 2958 2956 2953 2950 2947 2944 2941 2939 2935 2933 2930 2927 2925 2921 2916 2912
3026 3023 3021 3018 3015 3013 3011 3008 3005 3002 2999 2996 2993 2991 2988 2985 2983 2980 2978 2976 2973 2971 2969 2966 2963 2958 2954 2952 2948 2944 2941 2938 2937 2935 2932 2929 2926 2922 2919 2915 2911 2907
3021 3019 3016 3013 3011 3008 3006 3003 3000 2998 2995 2992 2989 2987 2984 2981 2979 2977 2974 2972 2969 2968 2966 2963 2960 2955 2950 2947 2944 2940 2936 2933 2930 2929 2926 2923 2919 2916 2912 2909 2905 2902
3016 3014 3011 3008 3006 3003 3001 2998 2996 2994 2991 2988 2985 2983 2980 2978 2976 2973 2971 2969 2966 2964 2962 2960 2956 2951 2946 2943 2940 2937 2933 2929 2926 2924 2921 2918 2915 2911 2907 2903 2899 2896
3011 3009 3006 3004 3001 2998 2996 2994 2992 2989 2986 2983 2981 2979 2977 2975 2972 2970 2968 2965 2962 2960 2959 2957 2953 2947 2943 2939 2936 2933 2929 2926 2923 2921 2918 2915 2912 2907 2903 2899 2895 2891
3007 3004 3002 2999 2997 2994 2993 2990 2988 2985 2982 2979 2977 2976 2974 2971 2969 2967 2965 2962 2959 2957 2955 2953 2950 2944 2939 2935 2931 2928 2925 2922 2920 2917 2915 2912 2908 2904 2900 2896 2892 2888
3002 3000 2998 2995 2993 2991 2988 2986 2983 2980 2978 2975 2974 2972 2970 2968 2966 2963 2962 2959 2955 2953 2951 2950 2946 2941 2935 2931 2927 2923 2919 2917 2915 2913 2910 2907 2905 2901 2897 2893 2889 2885
2998 2996 2994 2991 2989 2987 2984 2981 2979 2976 2974 2971 2970 2968 2966 2964 2962 2960 2958 2955 2952 2949 2946 2945 2943 2937 2931 2927 2923 2919 2914 2911 2909 2906 2904 2902 2900 2896 2892 2889 2886 2881
2994 2991 2989 2987 2985 2982 2980 2977 2974 2972 2970 2968 2966 2965 2963 2960 2958 2956 2953 2951 2949 2945 2942 2940 2939 2934 2928 2923 2920 2915 2909 2905 2902 2900 2897 2895 2893 2890 2887 2884 2881 2877
2989 2987 2985 2982 2980 2978 2976 2973 2971 2968 2966 2964 2962 2961 2959 2956 2954 2952 2950 2946 2944 2942 2938 2935 2934 2931 2925 2919 2916 2911 2904 2900 2896 2893 2890 2888 2886 2883 2880 2877 2874 2871
2985 2982 2980 2978 2976 2974 2972 2969 2967 2965 2963 2961 2959 2957 2955 2953 2950 2948 2946 2943 2940 2937 2934 2929 2927 2926 2921 2915 2911 2907 2900 2894 2890 2887 2884 2881 2878 2875 2872 2870 2866 2863
2980 2978 2976 2974 2972 2970 2968 2966 2963 2961 2959 2957 2955 2953 2951 2949 2946 2943 2942 2940 2936 2932 2929 2925 2921 2919 2917 2912 2906 2902 2896 2890 2885 2882 2877 2873 2870 2867 2864 2861 2859 2855